EZY50GT LPPT-LIRN

Flight info

Callsign EZY50GT
Flight time N/A
Altitude 36000
Route ORVED DCT UREDI N870 PISUS/N0442F300 N870 PONEN/N0448F350 N870 SEROX/N0447F360 N870 BCN/N0445F350 DCT DIPES/N0445F360 N725 OSPOK/N0442F370 DCT NOLVI DCT ORKUM/N0441F360 DCT ELSAG DCT ALG DCT ROXAN DCT TURMO DCT ROTUN/N0375F180 M603 PNZ
Aircraft A320/M-SDE3FGHIRWY/LB1

Departure

Time 2026-05-05 14:31
Airport Lisbon Humberto Delgado Airport (LPPT)

Arrival

Time N/A
Airport Naples International Airport (LIRN)
Time Latitude Longitude Altitude Speed Heading
2026-05-05 13:43 38.76441 -9.13804 355 ft 0 kts 168°
2026-05-05 14:20 38.76442 -9.13804 347 ft 2 kts 168°
2026-05-05 14:20 38.76463 -9.13809 351 ft 3 kts 172°
2026-05-05 14:20 38.76485 -9.13812 354 ft 3 kts 178°
2026-05-05 14:21 38.76507 -9.13812 353 ft 3 kts 193°
2026-05-05 14:21 38.76526 -9.13802 358 ft 3 kts 237°
2026-05-05 14:21 38.76531 -9.13790 356 ft 1 kts 258°
2026-05-05 14:21 38.76531 -9.13788 356 ft 0 kts 258°
2026-05-05 14:26 38.76528 -9.13806 352 ft 8 kts 258°
2026-05-05 14:26 38.76516 -9.13885 347 ft 9 kts 265°
2026-05-05 14:26 38.76560 -9.13944 350 ft 11 kts 315°
2026-05-05 14:27 38.76549 -9.14028 354 ft 10 kts 231°
2026-05-05 14:27 38.76508 -9.14087 349 ft 8 kts 238°
2026-05-05 14:27 38.76497 -9.14160 345 ft 11 kts 270°
2026-05-05 14:27 38.76528 -9.14272 339 ft 16 kts 293°
2026-05-05 14:28 38.76536 -9.14297 336 ft 0 kts 294°
2026-05-05 14:30 38.76536 -9.14298 336 ft 0 kts 294°
2026-05-05 14:30 38.76545 -9.14321 333 ft 5 kts 294°
2026-05-05 14:30 38.76566 -9.14380 333 ft 9 kts 299°
2026-05-05 14:30 38.76622 -9.14393 336 ft 9 kts 19°
2026-05-05 14:31 38.76721 -9.14347 337 ft 27 kts 20°
2026-05-05 14:31 38.77155 -9.14121 354 ft 107 kts 21°
2026-05-05 14:31 38.78052 -9.13671 498 ft 160 kts 17°
2026-05-05 14:31 38.79150 -9.13025 1079 ft 186 kts 23°
2026-05-05 14:32 38.80367 -9.12252 1610 ft 205 kts 17°
2026-05-05 14:32 38.81738 -9.11455 2018 ft 229 kts 23°
2026-05-05 14:32 38.83207 -9.10419 2567 ft 249 kts 25°
2026-05-05 14:32 38.84720 -9.09290 3420 ft 254 kts 28°
2026-05-05 14:33 38.86240 -9.08124 4344 ft 256 kts 27°
2026-05-05 14:33 38.87777 -9.06933 5231 ft 259 kts 28°
2026-05-05 14:33 38.89273 -9.05622 6084 ft 265 kts 41°
2026-05-05 14:33 38.90319 -9.03635 6894 ft 274 kts 60°
2026-05-05 14:34 38.91147 -9.01421 7708 ft 277 kts 60°
2026-05-05 14:34 38.91982 -8.99167 8493 ft 282 kts 61°
2026-05-05 14:34 38.92818 -8.96906 9307 ft 285 kts 61°
2026-05-05 14:34 38.93678 -8.94584 10104 ft 290 kts 60°
2026-05-05 14:35 38.94568 -8.92197 10547 ft 307 kts 60°
2026-05-05 14:35 38.95529 -8.89634 10758 ft 330 kts 60°
2026-05-05 14:35 38.96546 -8.86916 11208 ft 343 kts 60°
2026-05-05 14:35 38.97582 -8.84129 11837 ft 349 kts 61°
2026-05-05 14:36 38.98632 -8.81288 12520 ft 354 kts 60°
2026-05-05 14:36 38.99694 -8.78406 13206 ft 359 kts 60°
2026-05-05 14:36 39.00771 -8.75487 13867 ft 364 kts 60°
2026-05-05 14:36 39.01872 -8.72519 14458 ft 369 kts 60°
2026-05-05 14:37 39.02985 -8.69517 15054 ft 373 kts 60°
2026-05-05 14:37 39.04105 -8.66489 15642 ft 377 kts 60°
2026-05-05 14:37 39.05236 -8.63428 16237 ft 381 kts 60°
2026-05-05 14:37 39.06380 -8.60339 16824 ft 384 kts 60°
2026-05-05 14:38 39.07534 -8.57216 17407 ft 388 kts 60°
2026-05-05 14:38 39.08698 -8.54062 17997 ft 392 kts 60°
2026-05-05 14:38 39.09875 -8.50869 18556 ft 396 kts 60°
2026-05-05 14:38 39.11060 -8.47649 19053 ft 400 kts 60°
2026-05-05 14:39 39.12241 -8.44439 19537 ft 404 kts 60°
2026-05-05 14:39 39.13443 -8.41159 20035 ft 407 kts 60°
2026-05-05 14:39 39.14659 -8.37841 20523 ft 412 kts 60°
2026-05-05 14:39 39.15890 -8.34484 21002 ft 416 kts 61°
2026-05-05 14:40 39.17129 -8.31099 21487 ft 420 kts 61°
2026-05-05 14:40 39.18379 -8.27677 21952 ft 424 kts 61°
2026-05-05 14:40 39.19639 -8.24221 22425 ft 428 kts 61°
2026-05-05 14:40 39.20908 -8.20735 22884 ft 432 kts 61°
2026-05-05 14:41 39.22190 -8.17210 23321 ft 436 kts 61°
2026-05-05 14:41 39.23488 -8.13643 23732 ft 440 kts 61°
2026-05-05 14:41 39.24794 -8.10051 24094 ft 444 kts 61°
2026-05-05 14:41 39.26108 -8.06428 24453 ft 447 kts 61°
2026-05-05 14:42 39.27428 -8.02787 24812 ft 450 kts 61°
2026-05-05 14:42 39.28705 -7.99065 25160 ft 455 kts 64°
2026-05-05 14:42 39.29864 -7.95299 25502 ft 458 kts 66°
2026-05-05 14:42 39.30963 -7.91422 25857 ft 462 kts 67°
2026-05-05 14:43 39.32029 -7.87498 26193 ft 464 kts 68°
2026-05-05 14:43 39.33098 -7.83548 26517 ft 467 kts 68°
2026-05-05 14:43 39.34192 -7.79583 26853 ft 470 kts 67°
2026-05-05 14:43 39.35316 -7.75610 27191 ft 472 kts 67°
2026-05-05 14:44 39.36463 -7.71624 27515 ft 474 kts 66°
2026-05-05 14:44 39.37624 -7.67627 27839 ft 477 kts 66°
2026-05-05 14:44 39.38916 -7.63682 28157 ft 476 kts 60°
2026-05-05 14:44 39.40412 -7.59839 28469 ft 479 kts 60°
2026-05-05 14:45 39.41907 -7.55983 28772 ft 481 kts 60°
2026-05-05 14:45 39.43402 -7.52105 29072 ft 483 kts 60°
2026-05-05 14:45 39.44899 -7.48204 29349 ft 485 kts 60°
2026-05-05 14:45 39.46400 -7.44283 29631 ft 487 kts 60°
2026-05-05 14:46 39.47904 -7.40349 29895 ft 489 kts 60°
2026-05-05 14:46 39.49422 -7.36384 30148 ft 491 kts 60°
2026-05-05 14:46 39.50942 -7.32411 30354 ft 493 kts 60°
2026-05-05 14:46 39.52468 -7.28420 30557 ft 495 kts 60°
2026-05-05 14:47 39.53982 -7.24456 30754 ft 497 kts 60°
2026-05-05 14:47 39.55535 -7.20379 30977 ft 498 kts 60°
2026-05-05 14:47 39.57046 -7.16406 31258 ft 498 kts 60°
2026-05-05 14:47 39.58573 -7.12387 31521 ft 498 kts 60°
2026-05-05 14:48 39.60104 -7.08354 31782 ft 499 kts 60°
2026-05-05 14:48 39.61635 -7.04316 32033 ft 499 kts 60°
2026-05-05 14:48 39.63163 -7.00277 32305 ft 499 kts 60°
2026-05-05 14:48 39.64694 -6.96224 32579 ft 499 kts 60°
2026-05-05 14:49 39.66223 -6.92180 32848 ft 499 kts 60°
2026-05-05 14:49 39.67749 -6.88133 33131 ft 499 kts 60°
2026-05-05 14:49 39.69271 -6.84087 33419 ft 499 kts 60°
2026-05-05 14:49 39.70791 -6.80041 33701 ft 498 kts 60°
2026-05-05 14:50 39.72312 -6.75988 33996 ft 498 kts 60°
2026-05-05 14:50 39.73829 -6.71937 34248 ft 497 kts 60°
2026-05-05 14:50 39.75339 -6.67898 34502 ft 497 kts 60°
2026-05-05 14:50 39.76850 -6.63858 34745 ft 496 kts 60°
2026-05-05 14:51 39.78334 -6.59880 34987 ft 495 kts 60°
2026-05-05 14:51 39.79835 -6.55853 35215 ft 495 kts 60°
2026-05-05 14:51 39.81336 -6.51827 35445 ft 494 kts 60°
2026-05-05 14:51 39.82833 -6.47807 35652 ft 494 kts 60°
2026-05-05 14:52 39.84326 -6.43787 35869 ft 493 kts 60°
2026-05-05 14:52 39.85815 -6.39765 35974 ft 493 kts 60°
2026-05-05 14:52 39.88654 -6.31661 35988 ft 492 kts 63°
2026-05-05 14:53 39.91320 -6.23470 35993 ft 492 kts 64°
2026-05-05 14:53 39.93529 -6.16637 35984 ft 492 kts 63°
2026-05-05 14:54 39.96226 -6.08444 35982 ft 492 kts 63°
2026-05-05 14:54 39.98952 -6.00252 35979 ft 492 kts 63°
2026-05-05 14:55 40.02693 -5.89082 35946 ft 472 kts 61°
2026-05-05 14:55 40.04051 -5.85280 35569 ft 456 kts 59°
2026-05-05 14:55 40.05438 -5.81593 35166 ft 449 kts 58°
2026-05-05 14:56 40.06864 -5.77982 34658 ft 446 kts 56°
2026-05-05 14:56 40.08333 -5.74417 34088 ft 446 kts 55°
2026-05-05 14:56 40.09853 -5.70898 33468 ft 444 kts 53°
2026-05-05 14:56 40.11456 -5.67482 32904 ft 437 kts 49°
2026-05-05 14:57 40.13200 -5.64269 32387 ft 428 kts 44°
2026-05-05 14:57 40.15130 -5.61367 31840 ft 418 kts 37°
2026-05-05 14:57 40.15907 -5.60375 31608 ft 415 kts 33°